Weather History for Valdosta Regional, GA

Change the Weather History Date:

Sunday, January 6, 2013

  Actual Average Record
Temperature  
Mean Temperature 51 °F 50 °F  
Max Temperature 54 °F 62 °F - ()
Min Temperature 47 °F 39 °F - ()
Degree Days  
Heating Degree Days 14 15  
Month to date heating degree days 63 90  
Since 1 July heating degree days 504 703  
Growing Degree Days 1 (Base 50)    
Moisture  
Dew Point 46 °F    
Average Humidity 80    
Maximum Humidity 89    
Minimum Humidity 71    
Precipitation  
Precipitation 0.05 in 0.23 in - ()
Month to date precipitation 0.18 1.41  
Year to date precipitation 0.18 1.41  
Sea Level Pressure  
Sea Level Pressure 30.23 in    
Wind  
Wind Speed 3 mph (NNE)    
Max Wind Speed 9 mph    
Max Gust Speed 10 mph    
Visibility 8 miles    
Events Rain    
T = Trace of Precipitation, MM = Missing Value Source: NWS Daily Summary

Daily Weather History Graph

Daily Weather History Graph

Search for Another Location

Airport:

Trip Planner

Search our weather history database for the weather conditions in past years. The results will help you decide how hot, cold, wet, or windy it might be!

Date:

Astronomy

Jan. 06, 2013 Rise Set
Actual Time 7:31 AM EST 5:46 PM EST
Civil Twilight 7:05 AM EST 6:13 PM EST
Nautical Twilight 6:35 AM EST 6:43 PM EST
Astronomical Twilight 6:06 AM EST 7:12 PM EST
Moon 1:53 AM EST (1/6) 1:06 PM EST (1/6)
Length of Visible Light 11h 07m
Length of Day
10h 15m
Waning Crescent, 33% of the Moon is Illuminated
Jan 6
Waning Crescent
Jan 11
New
Jan 18
First Quarter
Jan 26
Full
Feb 3
Last Quarter

Hourly Weather History & Observations

Time (EST) Temp. Dew Point Humidity Pressure Visibility Wind Dir Wind Speed Gust Speed Precip Events Conditions
12:53 AM 50.0 °F 43.0 °F 77% 30.27 in 10.0 mi Calm Calm - 0.00 in Rain Light Rain
1:53 AM 48.9 °F 43.0 °F 80% 30.26 in 7.0 mi Calm Calm - 0.00 in Rain Light Rain
2:53 AM 48.0 °F 43.0 °F 83% 30.25 in 5.0 mi Calm Calm - N/A Rain Rain
3:53 AM 48.9 °F 43.0 °F 80% 30.23 in 10.0 mi NNE 3.5 mph - 0.00 in   Overcast
4:53 AM 48.9 °F 43.0 °F 80% 30.23 in 10.0 mi Calm Calm - 0.00 in   Overcast
5:53 AM 50.0 °F 43.0 °F 77% 30.24 in 10.0 mi North 4.6 mph - N/A   Overcast
6:11 AM 50.0 °F 42.8 °F 76% 30.22 in 10.0 mi North 5.8 mph - 0.00 in Rain Light Rain
6:53 AM 48.9 °F 43.0 °F 80% 30.24 in 10.0 mi Calm Calm - 0.00 in   Overcast
8:13 AM 50.0 °F 44.6 °F 82% 30.22 in 8.0 mi Calm Calm - 0.00 in Rain Light Rain
8:53 AM 50.0 °F 46.0 °F 86% 30.26 in 3.0 mi Calm Calm - 0.00 in Rain Light Rain
9:23 AM 51.8 °F 46.4 °F 82% 30.24 in 7.0 mi Calm Calm - 0.01 in   Overcast
9:42 AM 51.8 °F 48.2 °F 88% 30.25 in 3.0 mi North 4.6 mph - 0.01 in Rain Light Rain
9:53 AM 52.0 °F 48.0 °F 86% 30.27 in 2.5 mi North 4.6 mph - 0.01 in Rain Light Rain
10:03 AM 51.8 °F 48.2 °F 88% 30.25 in 5.0 mi Calm Calm - 0.00 in Rain Light Rain
10:10 AM 51.8 °F 48.2 °F 88% 30.25 in 2.5 mi Calm Calm - 0.00 in Rain Rain
10:27 AM 51.8 °F 46.4 °F 82% 30.25 in 6.0 mi North 4.6 mph - 0.00 in Rain Light Rain
10:34 AM 51.8 °F 46.4 °F 82% 30.25 in 7.0 mi North 4.6 mph - 0.00 in Rain Light Rain
10:53 AM 52.0 °F 46.9 °F 83% 30.27 in 9.0 mi North 5.8 mph - 0.00 in   Overcast
11:29 AM 51.8 °F 46.4 °F 82% 30.24 in 2.5 mi North 4.6 mph - 0.00 in Rain Rain
11:31 AM 51.8 °F 46.4 °F 82% 30.24 in 2.0 mi North 3.5 mph - 0.00 in Rain Rain
11:34 AM 51.8 °F 46.4 °F 82% 30.24 in 1.8 mi Calm Calm - 0.00 in Rain Light Rain
11:53 AM 52.0 °F 46.9 °F 83% 30.25 in 4.0 mi NNE 4.6 mph - N/A Rain Light Rain
12:05 PM 51.8 °F 46.4 °F 82% 30.22 in 7.0 mi NNE 5.8 mph - N/A   Overcast
12:22 PM 51.8 °F 46.4 °F 82% 30.21 in 8.0 mi NNE 6.9 mph - N/A   Overcast
12:38 PM 51.8 °F 48.2 °F 88% 30.20 in 10.0 mi NNE 4.6 mph - N/A   Overcast
12:53 PM 53.1 °F 48.0 °F 83% 30.22 in 9.0 mi NE 5.8 mph - N/A   Overcast
1:00 PM 53.6 °F 48.2 °F 82% 30.19 in 9.0 mi North 4.6 mph - N/A   Overcast
1:28 PM 53.6 °F 48.2 °F 82% 30.17 in 10.0 mi NNE 5.8 mph - N/A   Overcast
1:53 PM 54.0 °F 48.0 °F 80% 30.19 in 10.0 mi North 6.9 mph - N/A   Overcast
2:04 PM 53.6 °F 48.2 °F 82% 30.17 in 10.0 mi North 6.9 mph - N/A   Overcast
2:28 PM 53.6 °F 46.4 °F 77% 30.16 in 10.0 mi NNE 8.1 mph - N/A   Overcast
2:53 PM 53.1 °F 45.0 °F 74% 30.19 in 10.0 mi NNE 5.8 mph - N/A   Overcast
3:53 PM 54.0 °F 45.0 °F 72% 30.19 in 10.0 mi NE 3.5 mph - N/A   Overcast
4:22 PM 53.6 °F 46.4 °F 77% 30.17 in 10.0 mi Calm Calm - N/A   Overcast
4:53 PM 54.0 °F 46.0 °F 75% 30.19 in 10.0 mi North 6.9 mph - N/A   Overcast
5:22 PM 53.6 °F 46.4 °F 77% 30.17 in 10.0 mi Calm Calm - N/A   Overcast
5:53 PM 53.1 °F 46.9 °F 80% 30.20 in 10.0 mi Calm Calm - N/A   Overcast
6:53 PM 52.0 °F 46.9 °F 83% 30.21 in 10.0 mi North 4.6 mph - 0.01 in   Overcast
7:53 PM 52.0 °F 48.0 °F 86% 30.22 in 10.0 mi Calm Calm - N/A   Overcast
8:53 PM 51.1 °F 46.9 °F 86% 30.23 in 10.0 mi Calm Calm - N/A   Clear
9:53 PM 50.0 °F 46.0 °F 86% 30.25 in 10.0 mi Calm Calm - N/A   Mostly Cloudy
10:53 PM 50.0 °F 45.0 °F 83% 30.27 in 10.0 mi Calm Calm - 0.01 in   Clear
11:53 PM 48.0 °F 44.1 °F 86% 30.26 in 9.0 mi Calm Calm - N/A   Clear